Change the Weather History Date:

Saturday, March 9, 2013

  Actual Average (KCEW) Record (KCEW)
Temperature  
Mean Temperature 58 °F -  
Max Temperature 71 °F 70 °F 84 °F (1951)
Min Temperature 46 °F 44 °F 28 °F (2008)
Degree Days  
Heating Degree Days 6    
Growing Degree Days 8 (Base 50)    
Moisture  
Dew Point 39 °F    
Average Humidity 52    
Maximum Humidity 76    
Minimum Humidity 29    
Precipitation  
Precipitation 0.00 in - - ()
Sea Level Pressure  
Sea Level Pressure 30.19 in    
Wind  
Wind Speed 3 mph (SSE)    
Max Wind Speed 9 mph    
Max Gust Speed -    
Visibility 10 miles    
Events      
Averages and records for this station are not official NWS values.
T = Trace of Precipitation, MM = Missing Value Source: NWS Daily Summary

Daily Weather History Graph

Daily Weather History Graph

Search for Another Location

Airport or City:

Trip Planner

Search our weather history database for the weather conditions in past years. The results will help you decide how hot, cold, wet, or windy it might be!

Date:

Astronomy

Mar. 09, 2013 Rise Set
Actual Time 6:02 AM CST 5:49 PM CST
Civil Twilight 5:38 AM CST 6:13 PM CST
Nautical Twilight 5:10 AM CST 6:41 PM CST
Astronomical Twilight 4:42 AM CST 7:09 PM CST
Moon 4:19 AM CST (3/9) 3:56 PM CST (3/9)
Length of Visible Light 12h 35m
Length of Day
11h 47m
Waning Crescent, 5% of the Moon is Illuminated
Mar 9
Waning Crescent
Mar 11
New
Mar 19
First Quarter
Mar 27
Full
Apr 2
Last Quarter

Hourly Weather History & Observations

Time (CST) Temp. Dew Point Humidity Pressure Visibility Wind Dir Wind Speed Gust Speed Precip Events Conditions
12:58 AM 50.0 °F 33.1 °F 52% 30.20 in 9.0 mi Calm Calm - N/A   Clear
1:58 AM 48.0 °F 35.1 °F 61% 30.19 in 10.0 mi Calm Calm - N/A   Clear
2:58 AM 46.0 °F 39.0 °F 76% 30.19 in 10.0 mi Calm Calm - N/A   Clear
3:58 AM 48.9 °F 35.1 °F 59% 30.20 in 10.0 mi Calm Calm - N/A   Clear
4:58 AM 46.9 °F 35.1 °F 63% 30.21 in 9.0 mi ESE 4.6 mph - N/A   Clear
5:58 AM 46.9 °F 35.1 °F 63% 30.22 in 9.0 mi Calm Calm - N/A   Clear
6:58 AM 48.0 °F 37.0 °F 66% 30.24 in 7.0 mi Calm Calm - N/A   Clear
7:58 AM 51.1 °F 37.9 °F 61% 30.25 in 7.0 mi Variable 3.5 mph - N/A   Clear
8:58 AM 59.0 °F 41.0 °F 51% 30.27 in 10.0 mi Variable 3.5 mph - N/A   Clear
9:58 AM 66.0 °F 37.9 °F 36% 30.26 in 10.0 mi SSE 8.1 mph - N/A   Clear
10:58 AM 68.0 °F 37.9 °F 33% 30.24 in 10.0 mi Variable 6.9 mph - N/A   Clear
11:58 AM 69.1 °F 39.9 °F 35% 30.22 in 10.0 mi Variable 5.8 mph - N/A   Clear
12:58 PM 71.1 °F 39.0 °F 31% 30.20 in 10.0 mi SE 9.2 mph - N/A   Clear
1:58 PM 71.1 °F 37.9 °F 30% 30.17 in 10.0 mi Variable 3.5 mph - N/A   Clear
2:58 PM 71.1 °F 37.0 °F 29% 30.18 in 10.0 mi SE 5.8 mph - N/A   Clear
3:58 PM 70.0 °F 37.9 °F 31% 30.17 in 10.0 mi South 8.1 mph - N/A   Clear
4:58 PM 68.0 °F 39.0 °F 35% 30.18 in 10.0 mi South 4.6 mph - N/A   Clear
5:58 PM 63.0 °F 46.9 °F 56% 30.18 in 10.0 mi SW 3.5 mph - N/A   Clear
6:58 PM 57.9 °F 46.9 °F 67% 30.18 in 10.0 mi South 3.5 mph - N/A   Clear
7:58 PM 55.0 °F 45.0 °F 69% 30.17 in 10.0 mi South 4.6 mph - N/A   Clear
8:58 PM 57.0 °F 45.0 °F 64% 30.15 in 10.0 mi SSE 5.8 mph - N/A   Clear
9:58 PM 57.0 °F 43.0 °F 59% 30.15 in 10.0 mi SE 3.5 mph - N/A   Clear
10:58 PM 54.0 °F 42.1 °F 64% 30.14 in 10.0 mi Calm Calm - N/A   Clear
11:58 PM 53.1 °F 41.0 °F 64% 30.12 in 10.0 mi SSE 3.5 mph - N/A   Clear